EW2612 Weather Reports


time (UTC)temp
F
wind
direction
speed
knots
gust
knots
rain 1hr
in
rain 24hr
in
rain mn
in
humidity
%
barometer
mb
20260506044540 65 309 2.6 0.0 0.00 0.00 0.00 75 1007.5
20260506043030 66 57 2.6 0.0 0.00 0.00 0.00 74 1007.5
20260506041527 67 290 3.5 0.0 0.00 0.00 0.00 74 1007.6
20260506040023 68 321 3.5 0.0 0.00 0.00 0.00 73 1007.5
20260506034520 68 19 1.7 0.0 0.00 0.00 0.00 72 1007.1
20260506033026 68 283 2.6 0.0 0.00 0.00 0.00 71 1006.8
20260506031528 69 351 2.6 0.0 0.00 0.00 0.00 70 1006.4
20260506030033 70 281 2.6 0.0 0.00 0.00 0.00 69 1006.0
20260506024521 70 17 2.6 0.0 0.00 0.00 0.00 69 1006.0
20260506023009 71 360 2.6 0.0 0.00 0.00 0.00 68 1005.6
20260506021508 72 19 3.5 0.0 0.00 0.00 0.00 69 1005.4
20260506020005 73 319 3.5 0.0 0.00 0.00 0.00 68 1005.0
20260506014503 73 25 3.5 0.0 0.00 0.00 0.00 67 1004.5
20260506013103 74 41 3.5 0.0 0.00 0.00 0.00 67 1004.2
20260506011559 75 340 2.6 0.0 0.00 0.00 0.00 67 1003.7
20260506010106 75 322 3.5 0.0 0.00 0.00 0.00 65 1003.6
20260506004558 76 330 2.6 0.0 0.00 0.00 0.00 63 1003.5
20260506003058 77 5 1.7 0.0 0.00 0.00 0.00 62 1003.0
20260506001601 77 285 1.7 0.0 0.00 0.00 0.00 62 1003.2
20260506000100 78 355 4.3 0.0 0.00 0.00 0.00 61 1003.3
20260505234556 79 328 3.5 0.0 0.00 0.00 0.00 59 1002.9
20260505233112 80 32 3.5 0.0 0.00 0.00 0.00 59 1002.7
20260505231555 83 22 5.2 0.0 0.00 0.00 0.00 58 1002.4
20260505230054 85 314 4.3 0.0 0.00 0.00 0.00 52 1002.1
20260505224554 87 319 4.3 0.0 0.00 0.00 0.00 47 1002.1
20260505223052 89 292 1.7 0.0 0.00 0.00 0.00 47 1001.8
20260505221601 90 219 0.9 0.0 0.00 0.00 0.00 49 1001.7
20260505220053 90 185 0.9 0.0 0.00 0.00 0.00 49 1001.5
20260505214550 91 184 0.9 0.0 0.00 0.00 0.00 43 1001.7
20260505213050 91 175 1.7 0.0 0.00 0.00 0.00 47 1001.7
20260505211548 91 169 2.6 0.0 0.00 0.00 0.00 47 1001.7
20260505210048 91 174 2.6 0.0 0.00 0.00 0.00 49 1002.1
20260505204544 90 173 2.6 0.0 0.00 0.00 0.00 48 1002.3
20260505203049 90 175 3.5 0.0 0.00 0.00 0.00 49 1002.3
20260505201543 89 145 2.6 0.0 0.00 0.00 0.00 54 1002.6
20260505200040 90 213 1.7 0.0 0.00 0.00 0.00 53 1002.7
20260505194537 89 198 2.6 0.0 0.00 0.00 0.00 54 1002.8
20260505193049 88 199 2.6 0.0 0.00 0.00 0.00 56 1002.8
20260505191536 87 161 4.3 0.0 0.00 0.00 0.00 59 1002.8
20260505190037 86 146 4.3 0.0 0.00 0.00 0.00 61 1002.9
20260505184530 85 167 4.3 0.0 0.00 0.00 0.00 64 1003.0
20260505183026 85 160 4.3 0.0 0.00 0.00 0.00 65 1003.2
20260505181521 84 182 4.3 0.0 0.00 0.00 0.00 66 1003.3
20260505180024 83 181 3.5 0.0 0.00 0.00 0.00 69 1003.4
20260505174514 82 152 4.3 0.0 0.00 0.00 0.00 69 1003.6
20260505173011 81 142 4.3 0.0 0.00 0.00 0.00 71 1003.6
20260505171508 80 151 3.5 0.0 0.00 0.00 0.00 72 1003.7
20260505170006 80 171 4.3 0.0 0.00 0.00 0.00 72 1003.7
20260505164504 80 168 5.2 0.0 0.00 0.00 0.00 73 1003.7
20260505163002 79 157 6.1 0.0 0.00 0.00 0.00 75 1003.5
20260505161603 78 159 7.0 0.0 0.00 0.00 0.00 75 1003.3
20260505153101 75 165 3.5 0.0 0.00 0.00 0.00 80 1003.4
20260505151549 75 159 5.2 0.0 0.00 0.00 0.00 80 1003.4
20260505124606 70 146 5.2 0.0 0.00 0.00 0.00 89 1002.8
20260505123037 70 156 6.1 0.0 0.00 0.00 0.00 90 1002.6
20260505121524 69 161 5.2 0.0 0.00 0.00 0.00 91 1002.5
20260505120034 69 140 4.3 0.0 0.00 0.00 0.00 91 1002.4
20260505114519 69 184 5.2 0.0 0.00 0.00 0.00 91 1002.1
20260505113018 68 157 4.3 0.0 0.00 0.00 0.00 91 1002.3
20260505111527 68 143 4.3 0.0 0.00 0.00 0.00 91 1002.1
20260505101513 69 157 6.1 0.0 0.00 0.00 0.00 90 1001.9
20260505100011 69 145 5.2 0.0 0.00 0.00 0.00 89 1002.1
20260505094508 69 159 5.2 0.0 0.00 0.00 0.00 89 1002.2
20260505093007 69 161 6.1 0.0 0.00 0.00 0.00 89 1002.3
20260505091510 69 147 6.1 0.0 0.00 0.00 0.00 88 1002.4
20260505090003 69 144 6.1 0.0 0.00 0.00 0.00 88 1002.6
20260505084501 70 194 5.2 0.0 0.00 0.00 0.00 87 1002.5
20260505083111 70 151 7.0 0.0 0.00 0.00 0.00 86 1002.7
20260505081603 70 165 7.8 0.0 0.00 0.00 0.00 86 1002.6
20260505074550 71 158 7.0 0.0 0.00 0.00 0.00 84 1002.8
20260505073054 71 138 7.0 0.0 0.00 0.00 0.00 82 1002.9
20260505071550 71 163 6.1 0.0 0.00 0.00 0.00 81 1003.2
20260505070051 72 133 6.1 0.0 0.00 0.00 0.00 80 1003.4
20260505064542 72 148 7.8 0.0 0.00 0.00 0.00 79 1003.6
20260505063049 72 137 7.0 0.0 0.00 0.00 0.00 78 1003.8
20260505061537 72 167 7.0 0.0 0.00 0.00 0.00 78 1003.8
20260505060053 73 159 7.0 0.0 0.00 0.00 0.00 76 1003.8
20260505054533 73 152 7.0 0.0 0.00 0.00 0.00 76 1003.8
20260505053029 73 135 7.0 0.0 0.00 0.00 0.00 75 1003.6
20260505051527 74 169 6.1 0.0 0.00 0.00 0.00 74 1003.8